Simultaneous Nadir Overpasses (SNOs) Predictions

Prediction of SNOs near US between AQUA and NPP Satellite Orbit:

Table of predicted SNOs near US for the next 10.0 days since TLE Epoch: 5/22/2020
Index Date (AQUA) Time (AQUA) AQUA Lat,Lon Date (NPP) Time (NPP) NPP Lat,Lon Distance(km) Time Diff (sec)
1 05/24/2020 09:24:34 20.18,-114.19 05/24/2020 09:16:17 20.26,-114.64 47.72 497
2 05/27/2020 06:30:42 45.38, -65.39 05/27/2020 06:30:25 45.70, -67.40 160.34 17
3 05/27/2020 08:08:19 49.90, -88.34 05/27/2020 08:10:34 50.36, -90.81 183.38 135
4 05/27/2020 09:47:12 49.90,-113.06 05/27/2020 09:52:01 50.52,-116.11 227.78 289
5 05/29/2020 19:06:28 49.95, -92.52 05/29/2020 19:00:49 49.60, -94.35 137.27 339
6 05/29/2020 20:45:21 49.94,-117.24 05/29/2020 20:42:17 49.49,-119.68 182.58 184
7 06/01/2020 10:12:12 26.65,-125.00 06/01/2020 10:05:42 24.82,-126.17 234.20 390




NCC Satellite Simultaneous Nadir Overpasses (SNOs) Prediction Service
